Regional Weather Roundup
Issued by NWS

Home | Current Version | Previous Version | Text Only | Print | Product List | Glossary On
Versions: 1 2 3 4 5 6 7 8 9 10 11 12 13 14 15 16 17 18 19 20 21 22 23 24 25 26 27 28 29 30 31 32 33 34 35 36 37 38 39 40 41 42 43 44 45 46 47 48 49 50
000
ASUS44 KMEG 301600
RWRTN
TENNESSEE HOURLY STATE WEATHER ROUNDUP
NATIONAL WEATHER SERVICE MEMPHIS TN
1100 AM CDT SUN AUG 30 2015

TNZ002-004-019-021-049-052-054-088>092-301700-
WEST TENNESSEE

CITY           SKY/WX    TMP DP  RH WIND       PRES   REMARKS
MEMPHIS INTL   CLOUDY    79  70  74 SW3       30.08R
NWS MEMPHIS      N/A     78 N/A N/A MISG        N/A
JACKSON        MOSUNNY   79  69  71 S7        30.10S
DYERSBURG      PTSUNNY  N/A N/A N/A MISG        N/A
UNION CITY     PTSUNNY   79  72  78 SE3       30.09R
PARIS          SUNNY     79  68  69 S5        30.11F
LEXINGTON      MOSUNNY   81  68  65 VRB5      30.11S
$$

TNZ008-025-027-028-033-062-065-066-301700-
NORTH MIDDLE TENNESSEE

CITY           SKY/WX    TMP DP  RH WIND       PRES   REMARKS
NASHVILLE      CLOUDY    78  65  63 SE10      30.16R
CLARKSVILLE    PTSUNNY   81  66  60 SW12      30.12S
COOKEVILLE     MOSUNNY   75  68  78 CALM      30.18R
CROSSVILLE     CLOUDY    76  60  57 SE5       30.22R
$$

TNZ061-075-076-078-094-096-097-301700-
SOUTH MIDDLE TENNESSEE

CITY           SKY/WX    TMP DP  RH WIND       PRES   REMARKS
FAYETTEVILLE   MOSUNNY   70  64  83 CALM      30.18R
TULLAHOMA      CLOUDY    70  64  83 CALM      30.20R
WINCHESTER     PTSUNNY   73  64  73 SE9       30.19R
COLUMBIA       MOSUNNY   75  73  94 VRB7      30.15R
SHELBYVILLE    MOSUNNY   73  70  88 S5        30.19R
$$

TNZ017-018-042-046-047-301700-
NORTHEAST TENNESSEE

CITY           SKY/WX    TMP DP  RH WIND       PRES   REMARKS
TRI CITIES     CLOUDY    76  64  66 CALM      30.22S
$$

TNZ012-013-036-069-073-074-301700-
CENTRAL EAST TENNESSEE

CITY           SKY/WX    TMP DP  RH WIND       PRES   REMARKS
KNOXVILLE      CLOUDY    70  66  87 E6        30.17R
OAK RIDGE      CLOUDY    77  66  68 CALM      30.19S
GATLINBURG     SUNNY     75  63  64 CALM      30.18R
$$

TNZ083-085-099-301700-
SOUTHEAST TENNESSEE

CITY           SKY/WX    TMP DP  RH WIND       PRES   REMARKS
CHATTANOOGA    CLOUDY    75  67  76 NE6       30.17S
$$

SKY/WX REPORTED AS FAIR MEANS FEW OR NO CLOUDS BELOW
12 THOUSAND FEET.



USA.gov is the U.S. government's official web portal to all federal, state and local government web resources and services.